Regional Weather Roundup
Issued by NWS

Home | Current Version | Previous Version | Graphics & Text | Print | Product List | Glossary On
Versions: 1 2 3 4 5 6 7 8 9 10 11 12 13 14 15 16 17 18 19 20 21 22 23 24 25 26 27 28 29 30 31 32 33 34 35 36 37 38 39 40 41 42 43 44 45 46 47 48 49 50
015
ASUS43 KMKX 300111
RWRWI

WISCONSIN REGIONAL WEATHER ROUNDUP
NATIONAL WEATHER SERVICE MILWAUKEE/SULLIVAN WI
800 PM CDT FRI APR 29 2016

NOTE: "FAIR" INDICATES FEW OR NO CLOUDS BELOW 12,000 FEET WITH NO
SIGNIFICANT WEATHER AND/OR OBSTRUCTIONS TO VISIBILITY.

WIZ001-002-006>008-014>016-023>028-300200-
NORTHWEST WISCONSIN

CITY           SKY/WX    TMP DP  RH WIND       PRES   REMARKS
SUPERIOR ARPT  CLEAR     40  32  71 NE5       30.22R
ASHLAND        CLEAR     42  30  62 NE9       30.22R
HAYWARD        CLEAR     48  30  49 NE10      30.17R
SIREN          CLEAR     55  30  38 NE6       30.14R
CUMBERLAND     CLEAR     52  30  43 NE10      30.13R
RICE LAKE      CLOUDY    56  32  39 NE13      30.14R
CHETEK         CLOUDY    54  41  62 CALM      30.12S
LADYSMITH      CLOUDY    55  39  54 CALM      30.15R
EAU CLAIRE     CLEAR     54  38  54 SE5       30.11S
MENOMONIE      CLEAR     55  39  54 SE5       30.12S
NEW RICHMOND   CLEAR     53  38  57 S6        30.11F
OSCEOLA        CLEAR     58  33  38 E3        30.13F
$$

WIZ003>005-009-010-017-018-300200-
NORTH CENTRAL WISCONSIN

CITY           SKY/WX    TMP DP  RH WIND       PRES   REMARKS
MANITOWISH WTR PTCLDY    48  30  49 N8        30.15R
ARBOR VITAE    CLOUDY    55  33  44 CALM      30.14R
WOODRUFF       CLOUDY    55  33  44 CALM      30.14R
RHINELANDER    MOCLDY    52  31  44 N3        30.14R
EAGLE RIVER    CLOUDY    52  30  43 N3        30.13S
LAND O LAKES   CLOUDY    50  31  47 N9        30.16R
PHILLIPS       CLOUDY    51  33  49 NW6       30.13R
TOMAHAWK       CLOUDY    51  37  57 CALM      30.14R
MEDFORD        CLEAR     50  38  64 CALM      30.13R
MERRILL        CLEAR     53  37  52 SW3       30.13S
$$

WIZ029-030-035-036-043>047-300200-
CENTRAL WISCONSIN

CITY           SKY/WX    TMP DP  RH WIND       PRES   REMARKS
WAUSAU         PTCLDY    53  33  46 SE7       30.12R
MOSINEE        CLOUDY    52  32  46 SE7       30.14R
MARSHFIELD     MOCLDY    52  35  52 E3        30.11S
STEVENS POINT  CLOUDY    49  35  58 E5        30.14S
WAUPACA        CLEAR     54  31  42 NE3       30.15R
WAUTOMA        CLEAR     52  35  52 E6        30.14R
WISC RAPIDS    CLOUDY    53  34  48 E6        30.14R
CAMP DOUGLAS   CLOUDY    51  49  95 E2        30.11S
$$

WIZ011>013-019>022-031-037>040-048>050-300200-
NORTHEAST WISCONSIN

CITY           SKY/WX    TMP DP  RH WIND       PRES   REMARKS
ANTIGO         CLEAR     46  35  63 CALM      30.15R
SHAWANO        CLOUDY    51  30  45 E3        30.16R
OCONTO         PTCLDY    44  32  63 CALM      30.16R
STURGEON BAY   CLEAR     46  28  49 CALM      30.18S
GREEN BAY      CLEAR     48  30  49 NE9       30.16R
MANITOWOC      CLEAR     47  26  44 MISG      30.17R
APPLETON       PTCLDY    52  30  43 NE6       30.13R
CLINTONVILLE   CLEAR     50  32  50 E5        30.15R
OSHKOSH        CLEAR     51  33  50 E3        30.14R
$$

WIZ032>034-041-042-053>061-300200-
SOUTHWEST WISCONSIN

CITY           SKY/WX    TMP DP  RH WIND       PRES   REMARKS
LA CROSSE      CLOUDY    52  40  63 CALM      30.12F
SPARTA         CLOUDY    51  43  74 CALM      30.12F
VIROQUA        MOCLDY    47  38  68 CALM      30.11S
BOSCOBEL       CLOUDY    51  39  63 CALM      30.12S
PRAIRIE DU CHI CLOUDY    50  37  61 CALM      30.10F
PLATTEVILLE    CLOUDY    47  42  81 E5        30.12S
$$

WIZ056-057-062-063-064-067-068-300200-
SOUTH CENTRAL WISCONSIN

CITY           SKY/WX    TMP DP  RH WIND       PRES   REMARKS
REEDSBURG      CLEAR     49  38  66 CALM      30.11F
BARABOO/DELLS  CLEAR     47  37  67 CALM      30.11F
LONE ROCK      CLOUDY    49  41  74 E3        30.12S
MINERAL POINT  PTCLDY    46  41  81 CALM      30.11F
MADISON        PTCLDY    49  37  63 CALM      30.11R
MIDDLETON      PTCLDY    49  40  72 CALM      30.12R
WATERTOWN      CLEAR     46  34  64 E7        30.11S
MONROE         CLOUDY    46  39  76 CALM      30.11S
JANESVILLE     MOCLDY    48  39  71 CALM      30.13R
$$

WIZ051-052-058>065-066-070>072-300200-
SOUTHEAST WISCONSIN

CITY           SKY/WX    TMP DP  RH WIND       PRES   REMARKS
MILWAUKEE      PTCLDY    41  33  73 NE6       30.14S
WAUKESHA       CLEAR     43  34  70 E6        30.13S
MILWAUKEE/TIMM CLEAR     45  32  61 NE6       30.14S
RACINE         CLEAR     40  34  79 NE6       30.16R
BURLINGTON     CLEAR     43  36  77 E7        30.14R
KENOSHA        PTCLDY    41  35  79 E7        30.15R
FOND DU LAC    CLEAR     50  31  48 E8        30.14R
SHEBOYGAN      CLEAR     42  27  55 E6        30.16R
WEST BEND      PTCLDY    43  34  70 E7        30.15S
JUNEAU         CLEAR     47  32  56 NE9       30.13S
$$

LSZ147-162-300200-
LAKE SUPERIOR

STATION/POSITION TIME  TEMP    WIND        PRES    WAVE
                       AIR SEA DIR/SP/G            HT/PER
                 (UTC) (F)     (DEG/KT/KT) (MB)    (FT/S)
W MID LAKE BUOY  2350   39 37  340/  6/  8 1023.6S   1/ 4
DEVILS ISLAND    0000   38      50/  5/  6 1024.2R
SAXON HARBOR     0040   40     350/  3/  4 1022.7S
$$

LMZ867-665-643>646-300200-
LAKE MICHIGAN

STATION/POSITION TIME  TEMP    WIND        PRES    WAVE
                       AIR SEA DIR/SP/G            HT/PER
                 (UTC) (F)     (DEG/KT/KT) (MB)    (FT/S)
CHAMBERS ISLAND  0000   52      90/  2/  4 1021.0R
N MID LAKE BUOY  2350   45 39   10/  6/  8 1020.8R   0
NORTHPORT PIER   0000   46     340/  1/  3 1020.7R
ALGOMA LAKESHORE 0045           70/  7/  8   N/A
KEWAUNEE LAKESHO 0000                      1020.1F
SHEBOYGAN LAKESH 0000   42     120/  2/  3 1022.1S
PORT WASHINGTON  0000   43      80/  3/  4 1022.0R
S MID LAKE BUOY  2350   40 40   20/ 10/ 10 1020.5F   1/ 4
KENOSHA   LAKESH 0000   42      30/ 12/ 13 1020.0F
$$

TC  - TEMPERATURE IN CELSIUS
VSB - VISIBILITY IN STATUTE MILES
WCI - WIND CHILL INDEX
HX  - HEAT INDEX





USA.gov is the U.S. government's official web portal to all federal, state and local government web resources and services.